Theta_e
316 317 316 314 314 314 313 313 313 313 312 312 312 312 312 311 313 315 319 324 331 333 332 331 333 335 336 335 339 341 345 350 351 354 354 353 359 356 354 357 355 354 352 351 352
314 314 314 314 314 314 313 313 313 313 312 312 312 312 312 312 315 323 324 326 332 329 331 329 331 332 334 336 338 342 343 347 344 345 353 353 359 358 358 357 357 355 352 351 351
314 313 313 313 313 313 314 313 313 313 312 312 312 312 312 312 325 323 325 326 331 330 327 329 332 334 336 336 339 343 345 343 340 344 349 352 359 357 360 359 356 358 357 351 347
314 314 313 312 313 313 314 314 313 313 312 312 312 312 312 318 331 331 330 330 331 327 328 331 335 336 338 338 337 343 344 344 343 342 349 351 354 360 360 359 353 354 353 350 347
314 314 314 313 312 313 314 314 313 313 311 312 312 312 314 322 323 330 330 330 329 329 329 332 335 336 337 336 336 340 346 345 345 345 348 351 357 361 360 356 352 352 352 352 350
312 313 313 313 313 313 313 314 314 313 311 312 312 312 326 319 321 325 327 328 328 329 331 334 335 335 336 336 335 338 343 346 344 346 349 355 359 358 358 353 352 353 352 352 351
309 311 313 313 313 313 313 314 314 313 311 312 312 315 324 316 325 325 322 325 332 331 332 335 336 335 333 335 335 338 341 345 346 349 351 351 357 361 355 353 354 353 352 351 351
312 309 311 313 314 313 313 314 314 312 312 312 312 316 317 316 318 319 323 325 327 331 335 338 337 333 336 335 336 335 339 344 347 351 351 346 358 357 353 353 354 353 350 352 349
315 313 309 312 313 314 313 314 313 312 312 312 317 318 320 321 323 322 323 323 324 327 333 335 333 334 333 335 334 335 337 341 349 346 349 346 353 354 351 352 352 351 348 348 350
317 315 311 311 312 314 314 315 315 315 319 316 320 319 318 319 323 322 323 324 322 326 332 332 330 332 330 332 338 339 337 338 346 346 345 346 350 353 352 352 352 346 345 348 347
317 317 315 311 312 313 314 315 316 318 317 313 312 319 319 320 322 321 323 322 322 328 330 330 333 334 333 333 335 336 338 340 340 344 345 345 349 353 351 351 350 346 346 345 344
316 317 317 313 312 314 313 313 317 318 316 315 318 318 319 318 319 318 321 319 324 327 330 332 333 334 333 334 335 336 340 341 339 344 343 346 347 351 351 350 349 348 347 347 345
314 316 317 316 313 319 315 318 320 320 315 316 318 319 320 320 320 318 316 319 327 328 329 331 334 334 334 335 334 335 339 340 337 343 340 347 351 352 350 349 348 347 350 354 353
314 314 316 316 319 317 316 321 322 319 314 317 318 320 322 320 318 320 319 322 324 326 327 327 329 333 334 334 335 337 334 338 339 332 333 338 345 351 349 347 349 352 354 349 348
315 313 314 314 315 317 318 322 322 317 317 322 317 321 318 316 318 321 322 323 324 325 324 325 327 328 332 334 334 335 334 336 338 331 328 330 348 348 342 345 351 357 355 347 342
314 312 313 314 313 316 319 320 320 318 323 324 319 320 317 316 317 317 320 320 322 323 323 323 324 326 328 330 333 334 334 330 329 327 331 333 344 348 349 347 343 355 355 346 339
313 313 313 312 313 320 316 317 317 321 321 322 320 317 314 314 316 317 317 318 317 323 323 323 325 324 327 330 330 333 327 330 333 332 332 333 341 340 345 345 347 355 351 347 341
312 315 317 316 317 316 321 314 324 323 321 320 321 317 315 314 313 315 315 315 318 322 320 323 325 325 327 328 329 332 329 330 335 336 337 342 347 343 344 345 347 347 347 345 343
313 316 314 316 321 318 315 319 319 321 323 321 321 315 315 316 317 313 313 314 319 320 324 323 324 324 326 327 332 335 334 328 329 330 338 345 350 345 348 353 354 353 348 347 346
314 314 316 318 320 321 317 319 319 320 320 320 321 322 317 315 315 314 314 316 319 322 320 322 324 324 325 329 331 333 331 335 331 338 356 353 352 346 351 356 357 352 349 348 343
315 318 323 323 322 316 319 317 319 319 320 321 320 319 322 318 315 314 315 318 319 322 319 319 320 325 324 325 327 334 331 330 328 336 353 354 351 346 346 349 344 347 344 344 350
311 320 322 323 318 315 317 318 318 319 319 319 319 319 322 328 326 316 316 318 320 321 322 318 316 320 319 320 328 330 330 328 333 333 336 345 348 343 343 346 350 348 352 352 353
310 316 323 320 321 318 317 319 319 319 319 319 319 320 321 327 327 323 318 320 321 320 319 319 317 320 320 320 329 332 333 330 330 329 338 353 350 344 346 346 348 350 345 340 348
311 323 324 318 317 322 323 322 321 320 320 319 318 320 324 325 324 326 327 323 321 321 335 325 318 318 320 323 336 338 335 331 330 332 341 347 348 347 348 347 346 345 350 354 346
311 320 327 331 326 325 323 323 326 327 321 322 319 322 325 326 323 324 326 324 324 337 324 321 331 337 336 337 338 339 335 333 332 332 337 343 347 346 345 346 346 343 347 351 348
313 321 319 322 324 331 331 333 334 328 321 322 321 323 323 324 323 325 325 324 321 325 322 320 328 335 338 337 337 337 337 333 333 336 340 343 344 341 338 345 344 345 347 352 347
312 313 317 322 329 330 332 336 338 337 337 327 323 323 322 324 326 324 321 321 323 321 320 321 330 333 335 337 337 337 339 335 342 338 340 343 342 347 347 348 343 343 351 347 345
Wind_Speed
16 17 18 18 18 18 17 17 15 14 12 13 14 16 17 21 21 13 8 15 5 11 13 20 12 9 11 4 6 3 5 4 5 5 4 7 10 10 11 20 4 4 10 22 27
18 18 18 19 19 19 18 18 16 14 13 12 14 15 16 20 19 14 27 20 16 17 18 10 10 10 4 5 2 4 4 1 4 6 5 11 18 11 11 16 16 19 17 27 27
19 20 20 19 20 19 18 17 16 14 12 12 13 15 16 16 5 8 10 18 20 17 17 12 9 2 3 4 4 5 6 6 7 13 8 10 17 8 20 14 21 21 22 20 19
20 20 20 21 20 19 18 17 16 14 12 12 13 15 16 3 4 4 7 10 18 17 15 8 4 6 5 5 4 7 10 7 2 10 7 7 10 8 12 10 18 20 23 20 15
20 20 22 22 21 21 19 17 16 13 11 11 13 15 4 2 9 5 5 4 9 12 11 1 6 1 1 5 3 11 8 8 6 14 12 13 11 14 16 16 17 18 19 20 16
22 22 22 23 22 22 21 19 16 13 10 9 11 12 3 3 5 11 11 8 11 12 8 6 7 5 11 4 3 7 12 11 10 10 10 14 18 7 15 17 18 17 18 17 16
22 22 22 22 22 23 23 20 16 12 10 8 8 7 1 14 4 2 15 13 14 15 5 16 12 3 7 8 7 10 8 9 10 10 7 13 4 12 18 17 16 18 18 16 16
23 23 23 23 23 23 23 20 15 10 8 6 6 2 8 11 17 21 17 14 13 16 20 25 27 6 1 2 8 4 6 7 9 12 7 6 6 16 17 18 16 15 14 16 15
25 25 24 23 24 24 25 19 11 7 6 5 2 2 10 14 7 15 14 9 16 16 15 17 4 2 5 4 5 6 6 6 5 12 7 3 5 16 17 16 15 14 12 13 17
25 26 25 25 26 27 25 15 8 7 3 2 4 4 6 5 7 10 14 14 4 6 8 5 5 4 3 5 3 5 4 5 7 8 9 7 6 19 18 16 15 11 11 14 15
26 27 27 26 23 29 25 5 4 3 2 8 6 6 7 8 10 6 15 5 2 3 2 8 3 8 11 6 8 13 6 4 4 10 8 12 8 20 19 15 14 12 14 16 17
28 28 29 28 27 22 8 0 6 3 7 11 17 11 22 7 6 8 14 6 5 6 2 4 8 14 7 11 10 11 3 5 8 12 5 8 11 17 18 19 17 16 14 11 7
31 30 30 31 22 3 11 12 16 20 3 9 8 7 6 9 7 11 11 8 4 6 5 7 15 4 6 14 10 9 5 8 7 9 6 7 4 10 10 8 11 9 14 16 5
33 32 31 35 2 13 9 10 25 5 4 7 4 8 5 7 6 9 15 7 4 10 6 7 11 13 9 10 5 8 7 11 8 7 6 4 4 5 3 6 7 12 16 20 14
33 33 31 22 17 7 9 23 23 5 3 3 3 4 7 8 4 4 6 4 8 6 7 11 4 6 7 16 8 11 8 4 3 4 4 5 6 5 3 0 9 15 19 16 13
34 32 33 10 14 15 14 23 5 5 5 4 7 7 5 4 4 5 4 4 2 6 5 9 5 5 11 16 6 9 3 7 5 3 3 4 6 3 6 5 4 9 13 17 22
36 31 30 20 6 4 20 4 5 3 6 0 5 6 5 7 6 3 1 4 7 5 6 7 10 7 5 5 7 1 7 4 4 5 6 6 5 6 5 8 10 13 13 14 15
36 31 20 22 13 3 4 5 3 3 5 5 6 1 7 6 7 4 3 5 6 5 3 6 9 4 4 8 9 8 8 6 5 3 5 3 1 3 7 11 10 12 10 6 5
32 18 14 17 10 11 5 3 8 7 3 6 10 5 5 7 5 8 8 7 9 11 10 3 8 7 4 7 9 6 1 6 6 3 4 1 4 6 15 9 9 11 13 11 9
19 11 10 10 15 10 4 6 5 4 6 6 2 4 6 8 8 8 8 6 8 12 7 7 5 6 8 3 6 8 5 1 4 2 1 2 2 3 7 9 14 15 16 9 4
6 4 5 19 16 5 4 7 5 6 5 2 5 8 7 7 9 7 9 7 8 9 10 6 5 21 3 3 9 4 0 5 6 5 5 4 5 3 4 11 14 14 15 7 4
7 2 12 29 3 2 3 5 4 9 6 7 6 11 8 3 3 6 12 11 12 12 10 9 6 8 12 10 5 7 10 6 5 3 3 4 4 2 6 11 17 15 17 12 3
3 3 11 5 2 3 5 6 5 9 9 5 5 11 11 2 2 5 6 13 9 10 12 7 2 5 11 8 5 3 4 6 7 4 2 6 5 2 7 7 10 17 12 9 13
2 3 3 1 1 3 2 7 7 7 10 9 9 5 6 2 4 5 4 7 11 10 12 11 4 8 9 8 3 3 3 3 8 5 6 5 5 5 5 5 6 14 10 9 7
1 4 2 3 4 6 2 6 16 14 6 2 7 5 6 4 8 5 3 8 5 8 8 9 6 4 5 5 5 5 6 5 5 8 6 8 9 11 12 11 7 8 5 7 6
1 3 5 4 5 4 2 6 17 16 7 16 2 16 7 6 8 13 3 1 8 3 6 1 4 4 4 5 7 5 2 6 6 5 8 14 2 5 4 7 7 9 8 6 6
8 7 2 5 5 4 4 6 9 12 7 9 12 12 10 11 4 9 9 8 7 6 5 6 6 4 4 4 3 4 2 5 5 5 8 10 6 7 7 10 14 12 11 10 8
Wind_Direction
352 350 348 346 349 347 344 342 338 332 327 323 324 326 328 324 319 304 257 241 274 304 309 312 319 335 299 253 173 101 81 131 165 128 174 92 86 128 91 131 205 172 139 156 157
356 353 349 348 346 347 345 342 337 330 328 322 322 328 330 327 324 280 249 257 252 276 298 324 326 353 5 257 212 117 102 114 131 152 132 123 114 113 109 105 101 114 122 143 154
357 354 351 349 349 346 344 341 336 331 327 323 324 329 330 325 326 254 261 248 251 260 288 304 299 343 277 260 195 147 147 185 112 92 120 128 118 123 115 126 144 142 142 151 158
356 353 349 346 344 343 343 339 334 327 325 322 325 331 330 328 228 269 300 244 236 261 282 309 1 353 326 317 195 113 151 148 212 95 89 123 129 108 112 153 143 146 149 157 166
353 353 351 349 345 343 343 336 330 323 321 322 330 335 353 343 252 262 290 283 239 249 247 56 316 239 82 269 126 124 150 137 151 123 123 121 120 118 117 141 150 150 156 165 170
356 353 352 350 346 342 339 334 327 321 318 320 329 342 2 276 242 279 286 269 236 240 255 157 235 242 276 277 182 181 147 127 150 147 135 117 124 109 149 151 158 162 173 171 178
353 351 348 345 343 338 336 331 323 317 313 319 331 349 303 237 188 267 301 280 267 241 267 275 260 353 304 331 10 153 120 127 161 149 126 121 74 137 162 160 170 179 178 179 183
353 349 347 343 340 336 333 328 319 314 310 315 319 350 256 267 300 275 279 298 271 263 259 276 288 244 151 315 352 137 93 142 210 154 190 87 203 161 171 165 183 189 182 182 184
353 349 345 341 338 333 332 327 311 307 306 301 335 99 266 308 279 250 267 266 303 294 277 277 353 273 16 57 359 359 166 194 192 205 154 169 139 175 177 178 189 186 189 177 179
351 349 345 339 336 331 330 324 300 294 310 296 272 345 273 276 255 240 248 259 278 345 346 359 21 1 15 75 246 261 223 179 191 216 177 188 183 171 182 182 199 167 170 164 175
347 346 343 339 334 327 328 341 15 18 189 208 206 248 283 327 299 247 224 233 3 40 243 298 6 254 261 232 251 276 246 246 213 186 153 194 158 177 183 187 189 175 174 170 178
346 343 341 338 330 318 318 202 225 123 302 233 245 250 264 296 310 301 215 155 137 223 199 332 234 246 256 268 267 270 154 265 288 182 130 175 200 179 186 194 188 178 182 169 183
344 341 338 336 328 344 319 263 327 311 306 279 203 221 225 149 220 259 153 185 170 212 216 196 243 260 247 277 272 278 187 232 210 163 199 125 10 189 206 213 186 170 94 89 14
341 339 337 338 40 322 278 332 330 156 33 274 206 256 195 170 279 224 184 146 203 204 224 231 264 247 267 271 276 268 220 201 230 126 202 176 219 213 349 261 134 131 123 136 164
337 335 333 340 309 299 304 329 345 130 351 233 206 209 145 154 244 235 179 82 193 213 126 247 274 273 266 252 258 252 249 305 153 172 55 354 77 267 55 229 146 147 154 174 182
331 329 328 324 299 288 325 334 352 48 260 288 152 161 132 169 280 344 172 88 194 222 257 245 285 190 238 265 251 277 257 36 56 88 32 272 128 265 169 145 307 155 160 176 186
325 319 314 290 242 275 327 15 52 156 310 202 192 162 166 179 248 178 210 202 188 164 251 305 280 279 228 280 321 43 63 1 1 9 228 225 83 206 245 99 162 160 189 195 205
321 318 307 272 265 265 7 60 175 251 269 300 22 337 184 160 244 220 205 231 258 138 125 199 291 198 242 185 215 228 146 151 193 204 264 30 51 279 68 75 128 152 167 193 341
321 319 289 280 227 194 79 100 208 213 299 16 344 126 256 229 188 163 207 212 223 182 196 185 266 291 275 250 146 251 144 190 119 135 74 249 330 311 68 60 56 100 82 60 21
322 318 268 226 160 138 83 230 222 254 6 30 289 272 338 240 176 158 189 216 219 193 167 224 288 249 293 358 282 166 170 85 8 115 95 351 142 235 72 90 83 90 90 93 68
315 342 311 164 142 56 182 230 280 251 308 278 273 288 256 244 210 178 216 255 205 205 159 155 132 273 2 174 249 269 316 66 119 123 154 152 250 245 169 143 130 119 123 154 176
340 332 160 150 81 189 199 210 253 264 279 284 256 250 227 258 255 233 207 203 195 190 194 193 163 234 241 270 224 229 195 159 140 236 78 125 257 165 243 157 136 119 124 120 99
330 269 190 236 159 246 280 269 244 268 261 255 276 290 296 183 328 236 229 234 214 165 185 171 236 258 311 341 359 215 165 125 102 77 183 128 250 128 179 178 88 132 142 171 152
339 344 310 351 177 178 348 288 271 276 274 242 261 274 279 340 166 283 285 288 207 194 199 125 125 164 217 216 211 25 70 117 122 121 154 201 187 236 224 227 128 119 135 167 157
186 263 27 303 333 339 315 271 291 294 267 322 301 225 263 323 339 283 296 338 257 195 121 127 152 150 197 207 211 189 79 150 145 164 136 198 181 211 193 204 162 130 116 97 114
4 20 341 288 282 290 254 299 279 302 240 287 226 301 280 248 199 280 296 73 265 76 125 7 170 129 221 281 250 155 222 154 91 93 79 146 171 220 141 108 148 149 128 149 181
333 341 86 284 341 15 4 323 319 337 291 259 286 301 285 262 256 244 237 238 225 269 184 119 130 103 241 192 358 20 12 231 124 102 156 141 152 139 149 150 164 157 149 174 184